• En España
  • Lista de países
  • Para 7 días
  • Temperatura del agua
  • Mapa Satelital
  • El tiempo en el mapa
  • Informadores
  • user-avatar
    Iniciar sesión

    Tiempo cada hora Meppel

    Hoy, 19 Junio, Martes

    Tiempo Temperatura Precipitaciones Viento Presión Humedad
    00:00 +15°C° 0 mm 5 mps 764 mmHg 87%
    01:00 +15°C° 0 mm 5 mps 764 mmHg 88%
    02:00 +15°C° 0 mm 5 mps 764 mmHg 90%
    03:00 +15°C° 0 mm 5 mps 764 mmHg 92%
    04:00 +15°C° 0,1 mm 5 mps 764 mmHg 92%
    05:00 +16°C° 0,1 mm 5 mps 765 mmHg 92%
    06:00 +17°C° 0,1 mm 4 mps 765 mmHg 92%
    07:00 +17°C° 0 mm 4 mps 765 mmHg 90%
    08:00 +18°C° 0 mm 4 mps 766 mmHg 89%
    09:00 +18°C° 0 mm 4 mps 766 mmHg 87%
    10:00 +19°C° 0,1 mm 4 mps 767 mmHg 82%
    11:00 +20°C° 0,1 mm 3 mps 767 mmHg 77%
    12:00 +21°C° 0,1 mm 3 mps 767 mmHg 72%
    13:00 +21°C° 0,1 mm 3 mps 767 mmHg 71%
    14:00 +21°C° 0,1 mm 3 mps 767 mmHg 71%
    15:00 +21°C° 0,1 mm 3 mps 767 mmHg 70%
    16:00 +21°C° 0 mm 3 mps 767 mmHg 72%
    17:00 +21°C° 0 mm 2 mps 767 mmHg 74%
    18:00 +20°C° 0 mm 2 mps 767 mmHg 76%
    19:00 +20°C° 0 mm 1 mps 767 mmHg 80%
    20:00 +18°C° 0 mm 1 mps 767 mmHg 85%
    21:00 +14°C° 0 mm 0 mps 767 mmHg 89%
    22:00 +16°C° 0 mm 1 mps 767 mmHg 89%
    23:00 +16°C° 0 mm 1 mps 767 mmHg 89%

    Mañana, 20 Junio, Miércoles

    Tiempo Temperatura Precipitaciones Viento Presión Humedad
    00:00 +16°C° 0 mm 2 mps 767 mmHg 89%
    01:00 +15°C° 0 mm 2 mps 767 mmHg 91%
    02:00 +14°C° 0 mm 3 mps 767 mmHg 93%
    03:00 +14°C° 0 mm 3 mps 766 mmHg 95%
    04:00 +16°C° 0 mm 3 mps 766 mmHg 93%
    05:00 +17°C° 0 mm 4 mps 766 mmHg 90%
    06:00 +19°C° 0 mm 4 mps 766 mmHg 87%
    07:00 +20°C° 0 mm 5 mps 766 mmHg 83%
    08:00 +22°C° 0 mm 5 mps 766 mmHg 78%
    09:00 +23°C° 0 mm 5 mps 766 mmHg 74%
    10:00 +25°C° 0,1 mm 5 mps 766 mmHg 71%
    11:00 +26°C° 0,1 mm 6 mps 765 mmHg 68%
    12:00 +26°C° 0,1 mm 6 mps 765 mmHg 65%
    13:00 +26°C° 0 mm 6 mps 765 mmHg 64%
    14:00 +26°C° 0 mm 6 mps 764 mmHg 63%
    15:00 +26°C° 0 mm 6 mps 764 mmHg 61%
    16:00 +26°C° 0 mm 5 mps 764 mmHg 65%
    17:00 +25°C° 0 mm 4 mps 764 mmHg 69%
    18:00 +23°C° 0 mm 4 mps 763 mmHg 72%
    19:00 +21°C° 0 mm 3 mps 763 mmHg 78%
    20:00 +19°C° 0 mm 3 mps 763 mmHg 83%
    21:00 +17°C° 0 mm 3 mps 763 mmHg 88%
    22:00 +17°C° 0 mm 3 mps 763 mmHg 89%
    23:00 +17°C° 0 mm 3 mps 763 mmHg 90%

    Pasado mañana, 21 Junio, Jueves

    Tiempo Temperatura Precipitaciones Viento Presión Humedad
    00:00 +16°C° 0 mm 3 mps 762 mmHg 91%
    01:00 +15°C° 0,1 mm 4 mps 762 mmHg 93%
    02:00 +15°C° 0,1 mm 4 mps 762 mmHg 94%
    03:00 +15°C° 0,1 mm 4 mps 761 mmHg 95%
    04:00 +15°C° 0,5 mm 4 mps 761 mmHg 94%
    05:00 +15°C° 0,5 mm 5 mps 761 mmHg 93%
    06:00 +14°C° 0,5 mm 5 mps 761 mmHg 91%
    07:00 +14°C° 0,2 mm 6 mps 761 mmHg 86%
    08:00 +14°C° 0,2 mm 7 mps 762 mmHg 81%
    09:00 +13°C° 0,2 mm 8 mps 762 mmHg 76%
    10:00 +13°C° 0 mm 9 mps 762 mmHg 68%
    11:00 +15°C° 0 mm 9 mps 763 mmHg 60%
    12:00 +16°C° 0 mm 10 mps 763 mmHg 52%
    13:00 +16°C° 0 mm 9 mps 764 mmHg 54%
    14:00 +15°C° 0 mm 9 mps 764 mmHg 56%
    15:00 +15°C° 0 mm 9 mps 764 mmHg 59%
    16:00 +15°C° 0,1 mm 8 mps 765 mmHg 61%
    17:00 +13°C° 0,1 mm 8 mps 765 mmHg 64%
    18:00 +12°C° 0,1 mm 7 mps 765 mmHg 66%
    19:00 +11°C° 0 mm 6 mps 765 mmHg 68%
    20:00 +10°C° 0 mm 6 mps 765 mmHg 70%
    21:00 +9°C° 0 mm 5 mps 766 mmHg 72%
    22:00 +9°C° 0 mm 5 mps 766 mmHg 73%
    23:00 +9°C° 0 mm 5 mps 765 mmHg 73%

    22 Junio, Viernes

    Tiempo Temperatura Precipitaciones Viento Presión Humedad
    00:00 +9°C° 0 mm 6 mps 765 mmHg 74%
    01:00 +9°C° 0 mm 6 mps 765 mmHg 75%
    02:00 +9°C° 0 mm 5 mps 765 mmHg 76%
    03:00 +9°C° 0 mm 5 mps 765 mmHg 77%
    04:00 +10°C° 0 mm 6 mps 765 mmHg 75%
    05:00 +10°C° 0 mm 6 mps 765 mmHg 73%
    06:00 +11°C° 0 mm 7 mps 765 mmHg 71%
    07:00 +12°C° 0,1 mm 7 mps 766 mmHg 70%
    08:00 +14°C° 0,1 mm 7 mps 766 mmHg 69%
    09:00 +14°C° 0,1 mm 7 mps 766 mmHg 68%
    10:00 +15°C° 0,2 mm 7 mps 766 mmHg 67%
    11:00 +16°C° 0,2 mm 8 mps 766 mmHg 67%
    12:00 +16°C° 0,2 mm 8 mps 766 mmHg 66%
    13:00 +16°C° 0,1 mm 8 mps 766 mmHg 68%
    14:00 +15°C° 0,1 mm 8 mps 766 mmHg 70%
    15:00 +15°C° 0,1 mm 8 mps 766 mmHg 72%
    16:00 +14°C° 0,1 mm 7 mps 766 mmHg 74%
    17:00 +14°C° 0,1 mm 7 mps 766 mmHg 75%
    18:00 +13°C° 0,1 mm 6 mps 767 mmHg 77%
    19:00 +13°C° 0 mm 6 mps 767 mmHg 77%
    20:00 +11°C° 0 mm 6 mps 767 mmHg 78%
    21:00 +10°C° 0 mm 5 mps 767 mmHg 79%
    22:00 +10°C° 0 mm 5 mps 767 mmHg 78%
    23:00 +10°C° 0 mm 5 mps 767 mmHg 78%

    23 Junio, Sábado

    Tiempo Temperatura Precipitaciones Viento Presión Humedad
    00:00 +10°C° 0 mm 5 mps 767 mmHg 78%
    01:00 +10°C° 0 mm 5 mps 767 mmHg 76%
    02:00 +12°C° 0 mm 5 mps 767 mmHg 73%
    03:00 +12°C° 0 mm 5 mps 767 mmHg 71%
    04:00 +12°C° 0 mm 5 mps 767 mmHg 72%
    05:00 +13°C° 0 mm 5 mps 767 mmHg 72%
    06:00 +13°C° 0 mm 5 mps 767 mmHg 73%
    07:00 +13°C° 0 mm 5 mps 768 mmHg 71%
    08:00 +14°C° 0 mm 5 mps 768 mmHg 70%
    09:00 +14°C° 0 mm 6 mps 768 mmHg 68%
    10:00 +15°C° 0 mm 6 mps 768 mmHg 67%
    11:00 +15°C° 0 mm 6 mps 768 mmHg 65%
    12:00 +16°C° 0 mm 6 mps 768 mmHg 64%
    13:00 +16°C° 0 mm 6 mps 768 mmHg 64%
    14:00 +16°C° 0 mm 6 mps 768 mmHg 65%
    15:00 +16°C° 0 mm 6 mps 768 mmHg 66%
    16:00 +15°C° 0 mm 5 mps 768 mmHg 69%
    17:00 +15°C° 0 mm 5 mps 768 mmHg 72%
    18:00 +14°C° 0 mm 5 mps 768 mmHg 75%
    19:00 +13°C° 0 mm 4 mps 768 mmHg 79%
    20:00 +12°C° 0 mm 3 mps 768 mmHg 83%
    21:00 +11°C° 0 mm 3 mps 769 mmHg 86%
    22:00 +10°C° 0 mm 3 mps 769 mmHg 87%
    23:00 +10°C° 0 mm 2 mps 768 mmHg 88%

    24 Junio, Domingo

    Tiempo Temperatura Precipitaciones Viento Presión Humedad
    00:00 +9°C° 0 mm 2 mps 768 mmHg 89%
    01:00 +9°C° 0 mm 2 mps 768 mmHg 91%
    02:00 +9°C° 0 mm 2 mps 768 mmHg 92%
    03:00 +8°C° 0 mm 2 mps 768 mmHg 93%
    04:00 +10°C° 0 mm 2 mps 768 mmHg 89%
    05:00 +11°C° 0 mm 3 mps 768 mmHg 85%
    06:00 +12°C° 0 mm 3 mps 768 mmHg 81%
    07:00 +13°C° 0 mm 3 mps 768 mmHg 76%
    08:00 +14°C° 0 mm 3 mps 768 mmHg 72%
    09:00 +16°C° 0 mm 3 mps 768 mmHg 67%
    10:00 +17°C° 0 mm 3 mps 768 mmHg 65%
    11:00 +17°C° 0 mm 3 mps 768 mmHg 63%
    12:00 +18°C° 0 mm 3 mps 768 mmHg 60%
    13:00 +18°C° 0 mm 3 mps 768 mmHg 60%
    14:00 +19°C° 0 mm 3 mps 768 mmHg 60%
    15:00 +19°C° 0 mm 4 mps 768 mmHg 60%
    16:00 +19°C° 0 mm 3 mps 768 mmHg 63%
    17:00 +18°C° 0 mm 3 mps 768 mmHg 66%
    18:00 +18°C° 0 mm 3 mps 768 mmHg 69%
    19:00 +16°C° 0 mm 3 mps 768 mmHg 75%
    20:00 +14°C° 0 mm 2 mps 768 mmHg 82%
    21:00 +12°C° 0 mm 1 mps 768 mmHg 88%
    22:00 +12°C° 0 mm 1 mps 768 mmHg 89%
    23:00 +12°C° 0 mm 1 mps 768 mmHg 90%
    Mostrar más